| time (UTC) | temp F | wind direction | speed MPH | gust MPH | rain 1hr in | rain 24hr in | rain mn in | humidity % | barometer mb |
| 20260505173039 | 71 | 213 | 7.0 | 11.0 | 0.00 | 0.00 | 0.00 | 26 | 1011.2 |
| 20260505171542 | 71 | 248 | 7.0 | 16.0 | 0.00 | 0.00 | 0.00 | 24 | 1011.3 |
| 20260505170037 | 71 | 250 | 5.0 | 10.0 | 0.00 | 0.00 | 0.00 | 26 | 1011.2 |
| 20260505164537 | 71 | 270 | 4.0 | 10.0 | 0.00 | 0.00 | 0.00 | 25 | 1011.2 |
| 20260505163037 | 71 | 181 | 6.0 | 11.0 | 0.00 | 0.00 | 0.00 | 24 | 1011.2 |
| 20260505161536 | 69 | 217 | 3.0 | 9.0 | 0.00 | 0.00 | 0.00 | 26 | 1011.3 |
| 20260505153134 | 67 | 210 | 3.0 | 6.0 | 0.00 | 0.00 | 0.00 | 29 | 1011.4 |
| 20260505151532 | 66 | 230 | 3.0 | 9.0 | 0.00 | 0.00 | 0.00 | 33 | 1011.4 |
| 20260505124519 | 63 | 196 | 2.0 | 5.0 | 0.00 | 0.00 | 0.00 | 44 | 1010.2 |
| 20260505123014 | 64 | 231 | 2.0 | 7.0 | 0.00 | 0.00 | 0.00 | 44 | 1010.2 |
| 20260505121512 | 64 | 246 | 3.0 | 7.0 | 0.00 | 0.00 | 0.00 | 43 | 1010.3 |
| 20260505120010 | 64 | 234 | 3.0 | 7.0 | 0.00 | 0.00 | 0.00 | 42 | 1010.0 |
| 20260505114509 | 65 | 196 | 3.0 | 9.0 | 0.00 | 0.00 | 0.00 | 42 | 1010.0 |
| 20260505113007 | 65 | 219 | 4.0 | 9.0 | 0.00 | 0.00 | 0.00 | 41 | 1009.9 |
| 20260505111505 | 66 | 215 | 5.0 | 10.0 | 0.00 | 0.00 | 0.00 | 41 | 1009.8 |
| 20260505101602 | 67 | 221 | 3.0 | 10.0 | 0.00 | 0.00 | 0.00 | 38 | 1010.2 |
| 20260505100053 | 67 | 250 | 5.0 | 9.0 | 0.00 | 0.00 | 0.00 | 37 | 1010.5 |
| 20260505094550 | 68 | 207 | 3.0 | 10.0 | 0.00 | 0.00 | 0.00 | 37 | 1010.7 |
| 20260505093049 | 68 | 215 | 5.0 | 10.0 | 0.00 | 0.00 | 0.00 | 37 | 1010.8 |
| 20260505091553 | 68 | 244 | 6.0 | 13.0 | 0.00 | 0.00 | 0.00 | 36 | 1011.0 |
| 20260505090044 | 69 | 258 | 5.0 | 9.0 | 0.00 | 0.00 | 0.00 | 34 | 1010.9 |
| 20260505084546 | 69 | 213 | 7.0 | 13.0 | 0.00 | 0.00 | 0.00 | 31 | 1011.0 |
| 20260505083053 | 70 | 234 | 6.0 | 11.0 | 0.00 | 0.00 | 0.00 | 28 | 1011.3 |
| 20260505081536 | 70 | 233 | 8.0 | 12.0 | 0.00 | 0.00 | 0.00 | 26 | 1011.2 |
| 20260505080033 | 70 | 253 | 6.0 | 10.0 | 0.00 | 0.00 | 0.00 | 26 | 1011.2 |
| 20260505074534 | 71 | 187 | 3.0 | 9.0 | 0.00 | 0.00 | 0.00 | 25 | 1011.3 |
| 20260505073028 | 71 | 244 | 4.0 | 8.0 | 0.00 | 0.00 | 0.00 | 25 | 1011.1 |
| 20260505071527 | 71 | 250 | 3.0 | 7.0 | 0.00 | 0.00 | 0.00 | 27 | 1011.0 |
| 20260505070024 | 71 | 205 | 2.0 | 5.0 | 0.00 | 0.00 | 0.00 | 28 | 1011.0 |
| 20260505064532 | 71 | 183 | 2.0 | 5.0 | 0.00 | 0.00 | 0.00 | 29 | 1010.9 |
| 20260505063023 | 72 | 223 | 3.0 | 5.0 | 0.00 | 0.00 | 0.00 | 29 | 1011.1 |
| 20260505061523 | 72 | 209 | 3.0 | 5.0 | 0.00 | 0.00 | 0.00 | 28 | 1011.0 |
| 20260505060022 | 72 | 234 | 1.0 | 7.0 | 0.00 | 0.00 | 0.00 | 29 | 1010.8 |
| 20260505054540 | 72 | 245 | 2.0 | 5.0 | 0.00 | 0.00 | 0.00 | 29 | 1010.8 |
| 20260505053023 | 72 | 211 | 2.0 | 5.0 | 0.00 | 0.00 | 0.00 | 30 | 1011.0 |
| 20260505051520 | 72 | 194 | 2.0 | 5.0 | 0.00 | 0.00 | 0.00 | 30 | 1011.0 |
| 20260505041518 | 73 | 254 | 2.0 | 7.0 | 0.00 | 0.00 | 0.00 | 25 | 1011.0 |
| 20260505040018 | 73 | 267 | 2.0 | 5.0 | 0.00 | 0.00 | 0.00 | 25 | 1011.2 |
| 20260505034525 | 73 | 233 | 3.0 | 5.0 | 0.00 | 0.00 | 0.00 | 24 | 1011.0 |
| 20260505033016 | 73 | 213 | 2.0 | 5.0 | 0.00 | 0.00 | 0.00 | 24 | 1010.6 |
| 20260505031515 | 74 | 221 | 2.0 | 4.0 | 0.00 | 0.00 | 0.00 | 23 | 1010.5 |
| 20260505030036 | 74 | 226 | 1.0 | 3.0 | 0.00 | 0.00 | 0.00 | 23 | 1010.4 |
| 20260505024517 | 74 | 249 | 1.0 | 4.0 | 0.00 | 0.00 | 0.00 | 23 | 1010.2 |
| 20260505023014 | 74 | 264 | 2.0 | 8.0 | 0.00 | 0.00 | 0.00 | 23 | 1010.3 |
| 20260505021516 | 74 | 211 | 2.0 | 5.0 | 0.00 | 0.00 | 0.00 | 23 | 1010.2 |
| 20260505020013 | 74 | 256 | 2.0 | 7.0 | 0.00 | 0.00 | 0.00 | 22 | 1010.1 |
| 20260505014518 | 75 | 248 | 3.0 | 7.0 | 0.00 | 0.00 | 0.00 | 22 | 1010.3 |
| 20260505013018 | 75 | 209 | 4.0 | 8.0 | 0.00 | 0.00 | 0.00 | 21 | 1009.9 |
| 20260505011510 | 75 | 284 | 3.0 | 8.0 | 0.00 | 0.00 | 0.00 | 24 | 1010.1 |
| 20260505010010 | 75 | 231 | 4.0 | 10.0 | 0.00 | 0.00 | 0.00 | 25 | 1010.2 |
| 20260505004538 | 75 | 254 | 3.0 | 8.0 | 0.00 | 0.00 | 0.00 | 25 | 1010.2 |
| 20260505003021 | 75 | 220 | 6.0 | 9.0 | 0.00 | 0.00 | 0.00 | 23 | 1010.2 |
| 20260505001520 | 76 | 218 | 3.0 | 10.0 | 0.00 | 0.00 | 0.00 | 24 | 1010.3 |
| 20260505000020 | 76 | 241 | 3.0 | 11.0 | 0.00 | 0.00 | 0.00 | 25 | 1010.4 |
| 20260504234520 | 76 | 218 | 5.0 | 10.0 | 0.00 | 0.00 | 0.00 | 24 | 1010.5 |
| 20260504233022 | 77 | 194 | 5.0 | 10.0 | 0.00 | 0.00 | 0.00 | 23 | 1010.3 |
| 20260504231517 | 77 | 229 | 4.0 | 9.0 | 0.00 | 0.00 | 0.00 | 24 | 1010.1 |
| 20260504230017 | 76 | 250 | 4.0 | 12.0 | 0.00 | 0.00 | 0.00 | 24 | 1010.2 |
| 20260504224515 | 76 | 229 | 3.0 | 14.0 | 0.00 | 0.00 | 0.00 | 23 | 1010.3 |
| 20260504223015 | 76 | 265 | 3.0 | 8.0 | 0.00 | 0.00 | 0.00 | 26 | 1010.5 |
| 20260504221516 | 77 | 306 | 2.0 | 12.0 | 0.00 | 0.00 | 0.00 | 24 | 1010.5 |
| 20260504220013 | 76 | 202 | 2.0 | 10.0 | 0.00 | 0.00 | 0.00 | 26 | 1010.8 |
| 20260504214512 | 76 | 245 | 2.0 | 10.0 | 0.00 | 0.00 | 0.00 | 26 | 1010.9 |
| 20260504213027 | 75 | 247 | 6.0 | 10.0 | 0.00 | 0.00 | 0.00 | 28 | 1011.5 |
| 20260504211513 | 75 | 217 | 4.0 | 12.0 | 0.00 | 0.00 | 0.00 | 28 | 1011.6 |
| 20260504210011 | 74 | 233 | 6.0 | 11.0 | 0.00 | 0.00 | 0.00 | 28 | 1011.8 |
| 20260504204511 | 74 | 194 | 7.0 | 10.0 | 0.00 | 0.00 | 0.00 | 27 | 1011.8 |
| 20260504203009 | 74 | 270 | 7.0 | 13.0 | 0.00 | 0.00 | 0.00 | 27 | 1011.9 |
| 20260504201508 | 74 | 227 | 7.0 | 10.0 | 0.00 | 0.00 | 0.00 | 26 | 1012.1 |
| 20260504200009 | 74 | 262 | 8.0 | 12.0 | 0.00 | 0.00 | 0.00 | 26 | 1012.1 |
| 20260504194515 | 74 | 269 | 3.0 | 11.0 | 0.00 | 0.00 | 0.00 | 26 | 1012.0 |
| 20260504193010 | 73 | 244 | 7.0 | 11.0 | 0.00 | 0.00 | 0.00 | 27 | 1012.1 |
| 20260504191507 | 74 | 263 | 5.0 | 9.0 | 0.00 | 0.00 | 0.00 | 28 | 1011.7 |
| 20260504190006 | 73 | 264 | 6.0 | 9.0 | 0.00 | 0.00 | 0.00 | 28 | 1011.3 |
| 20260504184515 | 73 | 242 | 7.0 | 11.0 | 0.00 | 0.00 | 0.00 | 28 | 1011.8 |
| 20260504183004 | 72 | 211 | 6.0 | 13.0 | 0.00 | 0.00 | 0.00 | 31 | 1012.0 |
| 20260504181503 | 72 | 215 | 7.0 | 14.0 | 0.00 | 0.00 | 0.00 | 32 | 1012.0 |
| 20260504180003 | 71 | 214 | 6.0 | 10.0 | 0.00 | 0.00 | 0.00 | 33 | 1012.2 |
| 20260504174502 | 71 | 260 | 5.0 | 12.0 | 0.00 | 0.00 | 0.00 | 34 | 1012.1 |